Weather History for Millington, TN

Change the Weather History Date:

Tuesday, September 11, 2012

  Actual Average Record
Temperature  
Mean Temperature 72 °F -  
Max Temperature 86 °F 85 °F 93 °F (2000)
Min Temperature 57 °F 64 °F 57 °F (2012)
Cooling Degree Days 6    
Growing Degree Days 22 (Base 50)    
Moisture  
Dew Point 58 °F    
Average Humidity 68    
Maximum Humidity 100    
Minimum Humidity 35    
Precipitation  
Precipitation 0.00 in - - ()
Sea Level Pressure  
Sea Level Pressure 30.14 in    
Wind  
Wind Speed 1 mph (SE)    
Max Wind Speed 6 mph    
Max Gust Speed -    
Visibility 10 miles    
Events      
Averages and records for this station are not official NWS values.
T = Trace of Precipitation, MM = Missing Value Source: NWS Daily Summary

Daily Weather History Graph

Daily Weather History Graph

Search for Another Location

Airport:

Trip Planner

Search our weather history database for the weather conditions in past years. The results will help you decide how hot, cold, wet, or windy it might be!

Date:

Astronomy

Sep. 11, 2012 Rise Set
Actual Time 6:39 AM CDT 7:11 PM CDT
Civil Twilight 6:14 AM CDT 7:37 PM CDT
Nautical Twilight 5:43 AM CDT 8:07 PM CDT
Astronomical Twilight 5:13 AM CDT 8:37 PM CDT
Moon 2:05 AM CDT (9/11) 4:14 PM CDT (9/11)
Length of Visible Light 13h 23m
Length of Day
12h 31m
Waning Crescent, 21% of the Moon is Illuminated
Sep 11
Waning Crescent
Sep 15
New
Sep 22
First Quarter
Sep 29
Full
Oct 8
Last Quarter

Hourly Weather History & Observations

Time (CDT) Temp. Heat Index Dew Point Humidity Pressure Visibility Wind Dir Wind Speed Gust Speed Precip Events Conditions
12:55 AM 62.6 °F - 59.0 °F 88% 30.12 in 10.0 mi Calm Calm - N/A   Clear
1:55 AM 62.6 °F - 57.2 °F 82% 30.11 in 10.0 mi Calm Calm - N/A   Clear
2:15 AM 62.6 °F - 57.2 °F 82% 30.11 in 10.0 mi Calm Calm - N/A   Clear
2:35 AM 62.6 °F - 57.2 °F 82% 30.11 in 10.0 mi Calm Calm - N/A   Clear
2:55 AM 62.6 °F - 57.2 °F 82% 30.11 in 10.0 mi Calm Calm - N/A   Clear
3:15 AM 62.6 °F - 55.4 °F 77% 30.11 in 10.0 mi Calm Calm - N/A   Clear
3:35 AM 62.6 °F - 55.4 °F 77% 30.11 in 10.0 mi Calm Calm - N/A   Clear
3:55 AM 62.6 °F - 57.2 °F 82% 30.11 in 10.0 mi Calm Calm - N/A   Clear
4:55 AM 60.8 °F - 55.4 °F 82% 30.13 in 10.0 mi Calm Calm - N/A   Clear
5:55 AM 59.0 °F - 55.4 °F 88% 30.15 in 10.0 mi Calm Calm - N/A   Clear
6:55 AM 57.2 °F - 57.2 °F 100% 30.17 in 10.0 mi Calm Calm - N/A   Clear
7:55 AM 62.6 °F - 59.0 °F 88% 30.18 in 10.0 mi Calm Calm - N/A   Clear
8:55 AM 69.8 °F - 60.8 °F 73% 30.19 in 10.0 mi Calm Calm - N/A   Clear
9:55 AM 75.2 °F - 60.8 °F 61% 30.20 in 10.0 mi ESE 4.6 mph - N/A   Clear
10:55 AM 80.6 °F 81.8 °F 62.6 °F 54% 30.20 in 10.0 mi SSE 4.6 mph - N/A   Clear
11:55 AM 82.4 °F 82.9 °F 60.8 °F 48% 30.18 in 10.0 mi Variable 5.8 mph - N/A   Partly Cloudy
12:55 PM 84.2 °F 83.8 °F 59.0 °F 42% 30.17 in 10.0 mi Variable 4.6 mph - N/A   Partly Cloudy
1:55 PM 84.2 °F 83.5 °F 57.2 °F 40% 30.15 in 10.0 mi SSE 4.6 mph - N/A   Partly Cloudy
2:55 PM 84.2 °F 83.0 °F 55.4 °F 37% 30.13 in 10.0 mi SE 4.6 mph - N/A   Partly Cloudy
3:55 PM 86.0 °F 84.5 °F 55.4 °F 35% 30.11 in 10.0 mi Calm Calm - N/A   Partly Cloudy
4:55 PM 86.0 °F 84.5 °F 55.4 °F 35% 30.11 in 10.0 mi SSE 4.6 mph - N/A   Partly Cloudy
5:55 PM 84.2 °F 83.5 °F 57.2 °F 40% 30.11 in 10.0 mi Calm Calm - N/A   Partly Cloudy
6:55 PM 78.8 °F - 60.8 °F 54% 30.11 in 10.0 mi Calm Calm - N/A   Partly Cloudy
7:55 PM 71.6 °F - 60.8 °F 69% 30.12 in 10.0 mi Calm Calm - N/A   Partly Cloudy
8:55 PM 71.6 °F - 62.6 °F 73% 30.14 in 10.0 mi Calm Calm - N/A   Clear
9:55 PM 69.8 °F - 60.8 °F 73% 30.15 in 10.0 mi Calm Calm - N/A   Clear
10:55 PM 66.2 °F - 60.8 °F 83% 30.16 in 10.0 mi Calm Calm - N/A   Clear
11:55 PM 66.2 °F - 60.8 °F 83% 30.16 in 10.0 mi Calm Calm - N/A   Scattered Clouds